ANA561 RJTT-RJOK

Flight info

Callsign ANA561
Flight time 1h 7m
Altitude 34000
Route LAXAS Y56 TOHME Y54 KOHWA Y12 KEC Y24 TURFY Y242 PANCH
Aircraft A321/M-SDE3FGHIRWY/LB1

Departure

Time 2026-04-22 13:37
Airport Tokyo Haneda International Airport (RJTT)

Arrival

Time 2026-04-22 14:44
Airport Kochi Ryoma Airport (RJOK)
Time Latitude Longitude Altitude Speed Heading
2026-04-22 13:13 35.56039 139.78278 28 ft 0 kts 240°
2026-04-22 13:23 35.56047 139.78295 24 ft 3 kts 240°
2026-04-22 13:24 35.56056 139.78315 25 ft 3 kts 240°
2026-04-22 13:24 35.56065 139.78335 24 ft 3 kts 240°
2026-04-22 13:24 35.56075 139.78355 26 ft 3 kts 240°
2026-04-22 13:24 35.56079 139.78377 25 ft 3 kts 298°
2026-04-22 13:25 35.56072 139.78389 26 ft 0 kts 331°
2026-04-22 13:28 35.56108 139.78364 24 ft 11 kts 331°
2026-04-22 13:28 35.56176 139.78319 25 ft 10 kts 331°
2026-04-22 13:28 35.56236 139.78281 25 ft 9 kts 333°
2026-04-22 13:28 35.56288 139.78242 23 ft 8 kts 332°
2026-04-22 13:29 35.56334 139.78203 24 ft 7 kts 307°
2026-04-22 13:29 35.56342 139.78166 23 ft 6 kts 274°
2026-04-22 13:29 35.56324 139.78126 25 ft 5 kts 238°
2026-04-22 13:29 35.56300 139.78078 23 ft 11 kts 238°
2026-04-22 13:30 35.56240 139.77950 23 ft 23 kts 241°
2026-04-22 13:30 35.56124 139.77706 26 ft 22 kts 239°
2026-04-22 13:30 35.56080 139.77613 26 ft 16 kts 240°
2026-04-22 13:30 35.56041 139.77529 23 ft 9 kts 240°
2026-04-22 13:31 35.56013 139.77468 24 ft 8 kts 240°
2026-04-22 13:31 35.55986 139.77413 24 ft 7 kts 240°
2026-04-22 13:31 35.55962 139.77360 23 ft 7 kts 240°
2026-04-22 13:31 35.55939 139.77311 26 ft 6 kts 240°
2026-04-22 13:32 35.55920 139.77246 23 ft 10 kts 270°
2026-04-22 13:32 35.55959 139.77189 25 ft 7 kts 327°
2026-04-22 13:32 35.55995 139.77163 24 ft 4 kts 330°
2026-04-22 13:32 35.56038 139.77133 26 ft 13 kts 330°
2026-04-22 13:33 35.56125 139.77072 24 ft 13 kts 330°
2026-04-22 13:33 35.56176 139.77015 23 ft 9 kts 291°
2026-04-22 13:33 35.56161 139.76954 24 ft 7 kts 228°
2026-04-22 13:33 35.56138 139.76932 25 ft 0 kts 216°
2026-04-22 13:35 35.56128 139.76924 23 ft 6 kts 216°
2026-04-22 13:35 35.56072 139.76879 25 ft 8 kts 204°
2026-04-22 13:35 35.56027 139.76891 24 ft 5 kts 150°
2026-04-22 13:36 35.56020 139.76896 26 ft 0 kts 150°
2026-04-22 13:36 35.56015 139.76900 24 ft 7 kts 150°
2026-04-22 13:36 35.55757 139.77079 27 ft 76 kts 150°
2026-04-22 13:37 35.55137 139.77517 28 ft 127 kts 150°
2026-04-22 13:37 35.54270 139.78119 236 ft 146 kts 156°
2026-04-22 13:37 35.53456 139.78698 1048 ft 128 kts 153°
2026-04-22 13:37 35.52693 139.79258 1593 ft 129 kts 155°
2026-04-22 13:38 35.51888 139.79828 1977 ft 141 kts 155°
2026-04-22 13:38 35.49932 139.81198 2303 ft 183 kts 154°
2026-04-22 13:38 35.48767 139.82017 2434 ft 202 kts 154°
2026-04-22 13:39 35.47478 139.82923 2552 ft 226 kts 154°
2026-04-22 13:39 35.46069 139.83917 2901 ft 244 kts 153°
2026-04-22 13:39 35.44555 139.84895 3611 ft 245 kts 165°
2026-04-22 13:39 35.42880 139.85108 4315 ft 244 kts 192°
2026-04-22 13:40 35.41319 139.84328 5010 ft 245 kts 217°
2026-04-22 13:40 35.39956 139.83024 5725 ft 249 kts 219°
2026-04-22 13:40 35.38588 139.81696 6426 ft 253 kts 219°
2026-04-22 13:40 35.37196 139.80346 7075 ft 258 kts 220°
2026-04-22 13:41 35.35776 139.78974 7737 ft 262 kts 220°
2026-04-22 13:41 35.34330 139.77580 8394 ft 266 kts 220°
2026-04-22 13:41 35.32863 139.76171 9067 ft 270 kts 221°
2026-04-22 13:41 35.31374 139.74739 9722 ft 274 kts 221°
2026-04-22 13:42 35.29883 139.73257 10255 ft 282 kts 223°
2026-04-22 13:42 35.28334 139.71643 10387 ft 303 kts 224°
2026-04-22 13:42 35.26707 139.69918 10526 ft 323 kts 224°
2026-04-22 13:42 35.24972 139.68076 10886 ft 335 kts 224°
2026-04-22 13:43 35.23199 139.66204 11447 ft 339 kts 224°
2026-04-22 13:43 35.21400 139.64317 12072 ft 342 kts 224°
2026-04-22 13:43 35.19586 139.62426 12733 ft 344 kts 223°
2026-04-22 13:43 35.17736 139.60498 13398 ft 346 kts 224°
2026-04-22 13:44 35.15918 139.58607 14005 ft 349 kts 224°
2026-04-22 13:44 35.14061 139.56680 14581 ft 350 kts 224°
2026-04-22 13:44 35.12201 139.54755 15179 ft 351 kts 224°
2026-04-22 13:44 35.10342 139.52825 15792 ft 350 kts 224°
2026-04-22 13:45 35.08681 139.50671 16373 ft 347 kts 236°
2026-04-22 13:45 35.07440 139.48161 16946 ft 345 kts 246°
2026-04-22 13:45 35.06660 139.45394 17511 ft 346 kts 257°
2026-04-22 13:45 35.06189 139.42515 18059 ft 347 kts 258°
2026-04-22 13:46 35.05715 139.39624 18564 ft 348 kts 258°
2026-04-22 13:46 35.05234 139.36724 19006 ft 349 kts 258°
2026-04-22 13:46 35.04749 139.33813 19435 ft 351 kts 258°
2026-04-22 13:46 35.04257 139.30892 19856 ft 353 kts 258°
2026-04-22 13:47 35.03761 139.27955 20270 ft 354 kts 258°
2026-04-22 13:47 35.03264 139.25006 20689 ft 356 kts 258°
2026-04-22 13:47 35.02767 139.22036 21105 ft 358 kts 258°
2026-04-22 13:47 35.02268 139.19056 21519 ft 359 kts 258°
2026-04-22 13:48 35.01765 139.16064 21926 ft 361 kts 258°
2026-04-22 13:48 35.01258 139.13053 22332 ft 363 kts 258°
2026-04-22 13:48 35.00750 139.10030 22725 ft 365 kts 259°
2026-04-22 13:48 35.00238 139.06988 23159 ft 366 kts 259°
2026-04-22 13:49 34.99722 139.03941 23580 ft 368 kts 259°
2026-04-22 13:49 34.99202 139.00880 23925 ft 370 kts 259°
2026-04-22 13:49 34.98760 138.97825 24241 ft 371 kts 264°
2026-04-22 13:49 34.98587 138.94681 24563 ft 373 kts 265°
2026-04-22 13:50 34.98425 138.91516 24872 ft 374 kts 266°
2026-04-22 13:50 34.98261 138.88335 25182 ft 376 kts 266°
2026-04-22 13:50 34.98097 138.85151 25466 ft 377 kts 266°
2026-04-22 13:50 34.97927 138.81943 25738 ft 380 kts 266°
2026-04-22 13:51 34.97756 138.78731 26061 ft 381 kts 265°
2026-04-22 13:51 34.97584 138.75501 26373 ft 382 kts 266°
2026-04-22 13:51 34.97412 138.72259 26673 ft 384 kts 266°
2026-04-22 13:51 34.97238 138.69005 26967 ft 385 kts 266°
2026-04-22 13:52 34.97063 138.65740 27250 ft 387 kts 266°
2026-04-22 13:52 34.96889 138.62461 27510 ft 388 kts 266°
2026-04-22 13:52 34.96714 138.59165 27779 ft 390 kts 266°
2026-04-22 13:52 34.96537 138.55865 28033 ft 391 kts 266°
2026-04-22 13:53 34.96354 138.52548 28284 ft 393 kts 266°
2026-04-22 13:53 34.96167 138.49215 28565 ft 394 kts 266°
2026-04-22 13:53 34.95978 138.45878 28837 ft 395 kts 265°
2026-04-22 13:53 34.95788 138.42530 29111 ft 397 kts 266°
2026-04-22 13:54 34.95600 138.39207 29356 ft 398 kts 266°
2026-04-22 13:54 34.95412 138.35840 29618 ft 399 kts 266°
2026-04-22 13:54 34.95224 138.32478 29994 ft 397 kts 266°
2026-04-22 13:54 34.95036 138.29129 30303 ft 396 kts 266°
2026-04-22 13:55 34.94845 138.25789 30595 ft 395 kts 266°
2026-04-22 13:55 34.94653 138.22457 30907 ft 393 kts 266°
2026-04-22 13:55 34.94461 138.19134 31193 ft 392 kts 266°
2026-04-22 13:55 34.94271 138.15820 31405 ft 393 kts 266°
2026-04-22 13:56 34.94079 138.12501 31697 ft 391 kts 266°
2026-04-22 13:56 34.93887 138.09205 32036 ft 389 kts 266°
2026-04-22 13:56 34.93696 138.05914 32386 ft 387 kts 266°
2026-04-22 13:56 34.93506 138.02657 32656 ft 385 kts 266°
2026-04-22 13:57 34.93315 137.99405 32936 ft 384 kts 266°
2026-04-22 13:57 34.93124 137.96159 33259 ft 383 kts 266°
2026-04-22 13:57 34.92929 137.92936 33578 ft 381 kts 266°
2026-04-22 13:57 34.92731 137.89727 33889 ft 379 kts 266°
2026-04-22 13:58 34.92532 137.86524 34016 ft 378 kts 266°
2026-04-22 13:58 34.92334 137.83341 34040 ft 375 kts 266°
2026-04-22 13:58 34.91945 137.77023 34039 ft 372 kts 266°
2026-04-22 13:59 34.91561 137.70744 34041 ft 371 kts 266°
2026-04-22 13:59 34.90485 137.64603 34045 ft 374 kts 253°
2026-04-22 14:00 34.88702 137.58686 34027 ft 374 kts 253°
2026-04-22 14:00 34.86914 137.52732 34028 ft 374 kts 253°
2026-04-22 14:01 34.85126 137.46763 34032 ft 374 kts 253°
2026-04-22 14:01 34.83400 137.40795 34035 ft 374 kts 254°
2026-04-22 14:02 34.81707 137.34819 34035 ft 373 kts 254°
2026-04-22 14:02 34.80011 137.28844 34031 ft 373 kts 254°
2026-04-22 14:03 34.78300 137.22876 34035 ft 373 kts 253°
2026-04-22 14:03 34.76582 137.16915 34032 ft 373 kts 253°
2026-04-22 14:04 34.74857 137.10962 34060 ft 373 kts 253°
2026-04-22 14:04 34.73134 137.05028 34050 ft 372 kts 253°
2026-04-22 14:05 34.71400 136.99151 34039 ft 372 kts 249°
2026-04-22 14:05 34.68390 136.93954 34025 ft 386 kts 229°
2026-04-22 14:06 34.66269 136.91894 34025 ft 392 kts 225°
2026-04-22 14:06 34.61913 136.87886 33995 ft 393 kts 225°
2026-04-22 14:07 34.57558 136.83854 34002 ft 394 kts 225°
2026-04-22 14:07 34.53189 136.79807 34012 ft 396 kts 225°
2026-04-22 14:08 34.48802 136.75760 34008 ft 396 kts 225°
2026-04-22 14:08 34.44403 136.71702 34016 ft 397 kts 225°
2026-04-22 14:09 34.39998 136.67647 34019 ft 398 kts 225°
2026-04-22 14:09 34.35590 136.63599 34022 ft 398 kts 225°
2026-04-22 14:10 34.31207 136.59577 34029 ft 397 kts 225°
2026-04-22 14:10 34.26819 136.55516 34021 ft 397 kts 226°
2026-04-22 14:11 34.22462 136.51411 34021 ft 397 kts 226°
2026-04-22 14:11 34.18099 136.47305 34028 ft 398 kts 225°
2026-04-22 14:12 34.13724 136.43213 34030 ft 398 kts 225°
2026-04-22 14:12 34.09340 136.39121 34030 ft 398 kts 225°
2026-04-22 14:13 34.04960 136.35030 34016 ft 398 kts 225°
2026-04-22 14:13 34.00581 136.30948 34002 ft 398 kts 225°
2026-04-22 14:14 33.96196 136.26875 34016 ft 398 kts 225°
2026-04-22 14:14 33.92553 136.23496 34020 ft 398 kts 225°
2026-04-22 14:15 33.88177 136.19428 34024 ft 397 kts 225°
2026-04-22 14:15 33.83798 136.15366 34025 ft 397 kts 225°
2026-04-22 14:16 33.79423 136.11319 34031 ft 396 kts 225°
2026-04-22 14:16 33.75053 136.07289 34034 ft 396 kts 225°
2026-04-22 14:17 33.70686 136.03261 34033 ft 395 kts 225°
2026-04-22 14:17 33.66319 135.99234 34010 ft 395 kts 225°
2026-04-22 14:18 33.61989 135.95245 34004 ft 395 kts 224°
2026-04-22 14:18 33.57626 135.91234 34007 ft 395 kts 224°
2026-04-22 14:19 33.53271 135.87232 34011 ft 395 kts 224°
2026-04-22 14:19 33.48901 135.83232 34015 ft 395 kts 224°
2026-04-22 14:20 33.44000 135.75764 34004 ft 377 kts 251°
2026-04-22 14:20 33.42507 135.69753 33979 ft 378 kts 256°
2026-04-22 14:21 33.41071 135.63662 33457 ft 381 kts 256°
2026-04-22 14:21 33.40347 135.60610 33195 ft 382 kts 256°
2026-04-22 14:22 33.38897 135.54485 32672 ft 384 kts 256°
2026-04-22 14:22 33.38171 135.51412 32429 ft 385 kts 256°
2026-04-22 14:22 33.36713 135.45258 31573 ft 381 kts 255°
2026-04-22 14:23 33.35981 135.42227 31031 ft 378 kts 255°
2026-04-22 14:23 33.35218 135.39226 30471 ft 376 kts 254°
2026-04-22 14:23 33.34449 135.36289 29913 ft 374 kts 253°
2026-04-22 14:23 33.33666 135.33326 29343 ft 371 kts 253°
2026-04-22 14:24 33.32892 135.30399 28820 ft 367 kts 253°
2026-04-22 14:24 33.32130 135.27504 28291 ft 363 kts 253°
2026-04-22 14:24 33.31381 135.24635 27795 ft 360 kts 254°
2026-04-22 14:24 33.30641 135.21791 27279 ft 357 kts 254°
2026-04-22 14:25 33.29909 135.18973 26785 ft 353 kts 254°
2026-04-22 14:25 33.29181 135.16177 26296 ft 350 kts 254°
2026-04-22 14:25 33.28456 135.13406 25819 ft 347 kts 254°
2026-04-22 14:25 33.27740 135.10669 25346 ft 344 kts 254°
2026-04-22 14:26 33.27028 135.07947 24889 ft 340 kts 254°
2026-04-22 14:26 33.26325 135.05261 24452 ft 338 kts 254°
2026-04-22 14:26 33.25627 135.02596 24017 ft 334 kts 254°
2026-04-22 14:26 33.24943 134.99993 23586 ft 331 kts 253°
2026-04-22 14:27 33.24271 134.97377 23121 ft 327 kts 254°
2026-04-22 14:27 33.23639 134.94789 22734 ft 321 kts 255°
2026-04-22 14:27 33.23034 134.92248 22341 ft 316 kts 255°
2026-04-22 14:27 33.22440 134.89743 21950 ft 311 kts 255°
2026-04-22 14:28 33.21854 134.87276 21575 ft 306 kts 255°
2026-04-22 14:28 33.21272 134.84844 21195 ft 304 kts 254°
2026-04-22 14:28 33.20687 134.82425 20812 ft 302 kts 254°
2026-04-22 14:28 33.20102 134.80016 20431 ft 302 kts 254°
2026-04-22 14:29 33.19518 134.77617 20039 ft 301 kts 253°
2026-04-22 14:29 33.18934 134.75220 19645 ft 300 kts 253°
2026-04-22 14:29 33.18349 134.72825 19252 ft 298 kts 253°
2026-04-22 14:29 33.17766 134.70449 18853 ft 297 kts 253°
2026-04-22 14:30 33.17188 134.68081 18458 ft 297 kts 253°
2026-04-22 14:30 33.16630 134.65748 18049 ft 296 kts 255°
2026-04-22 14:30 33.16340 134.63314 17643 ft 297 kts 265°
2026-04-22 14:30 33.16418 134.60841 17258 ft 299 kts 270°
2026-04-22 14:31 33.16546 134.58371 16856 ft 298 kts 269°
2026-04-22 14:31 33.16669 134.55896 16471 ft 298 kts 269°
2026-04-22 14:31 33.16793 134.53433 16093 ft 297 kts 269°
2026-04-22 14:31 33.16916 134.50967 15705 ft 296 kts 269°
2026-04-22 14:32 33.17037 134.48516 15330 ft 296 kts 269°
2026-04-22 14:32 33.17154 134.46069 14951 ft 295 kts 269°
2026-04-22 14:32 33.17272 134.43623 14574 ft 295 kts 269°
2026-04-22 14:32 33.17391 134.41185 14203 ft 294 kts 269°
2026-04-22 14:33 33.17508 134.38748 13811 ft 294 kts 269°
2026-04-22 14:33 33.17626 134.36316 13393 ft 293 kts 269°
2026-04-22 14:33 33.17745 134.33895 13004 ft 292 kts 269°
2026-04-22 14:33 33.17864 134.31479 12620 ft 291 kts 270°
2026-04-22 14:34 33.17978 134.29074 12261 ft 290 kts 270°
2026-04-22 14:34 33.18090 134.26679 11874 ft 289 kts 270°
2026-04-22 14:34 33.18203 134.24281 11495 ft 289 kts 270°
2026-04-22 14:34 33.18316 134.21893 11111 ft 288 kts 270°
2026-04-22 14:35 33.18429 134.19504 10716 ft 287 kts 271°
2026-04-22 14:35 33.18539 134.17129 10407 ft 284 kts 271°
2026-04-22 14:35 33.18645 134.14834 10172 ft 278 kts 271°
2026-04-22 14:35 33.18750 134.12535 9967 ft 276 kts 271°
2026-04-22 14:36 33.18997 134.10267 9841 ft 277 kts 284°
2026-04-22 14:36 33.19813 134.08173 9707 ft 281 kts 302°
2026-04-22 14:36 33.21156 134.06441 9230 ft 288 kts 316°
2026-04-22 14:36 33.22671 134.04875 8811 ft 287 kts 316°
2026-04-22 14:37 33.24181 134.03308 8320 ft 287 kts 316°
2026-04-22 14:37 33.25672 134.01754 7880 ft 281 kts 316°
2026-04-22 14:37 33.27142 134.00217 7335 ft 280 kts 317°
2026-04-22 14:37 33.28603 133.98687 6841 ft 277 kts 317°
2026-04-22 14:38 33.30050 133.97168 6214 ft 276 kts 317°
2026-04-22 14:38 33.31467 133.95674 5667 ft 274 kts 317°
2026-04-22 14:38 33.32915 133.94145 5156 ft 274 kts 317°
2026-04-22 14:38 33.34342 133.92637 4643 ft 273 kts 318°
2026-04-22 14:39 33.35749 133.91151 4190 ft 270 kts 318°
2026-04-22 14:39 33.37115 133.89713 4113 ft 253 kts 318°
2026-04-22 14:39 33.38404 133.88356 4048 ft 240 kts 318°
2026-04-22 14:40 33.40458 133.86192 3887 ft 236 kts 319°
2026-04-22 14:40 33.42046 133.84414 3531 ft 230 kts 313°
2026-04-22 14:40 33.43096 133.82995 3234 ft 225 kts 310°
2026-04-22 14:40 33.44106 133.81584 2931 ft 221 kts 310°
2026-04-22 14:41 33.45092 133.80209 2661 ft 213 kts 310°
2026-04-22 14:41 33.46031 133.78901 2366 ft 202 kts 310°
2026-04-22 14:41 33.46927 133.77652 2094 ft 193 kts 310°
2026-04-22 14:41 33.47785 133.76456 1843 ft 186 kts 310°
2026-04-22 14:42 33.48603 133.75316 1615 ft 174 kts 310°
2026-04-22 14:42 33.49361 133.74260 1381 ft 160 kts 310°
2026-04-22 14:42 33.50072 133.73268 1162 ft 154 kts 309°
2026-04-22 14:42 33.50767 133.72299 964 ft 152 kts 309°
2026-04-22 14:43 33.51457 133.71335 767 ft 153 kts 308°
2026-04-22 14:43 33.52140 133.70382 574 ft 152 kts 308°
2026-04-22 14:43 33.52828 133.69421 374 ft 152 kts 309°
2026-04-22 14:43 33.53515 133.68457 195 ft 152 kts 308°
2026-04-22 14:44 33.54200 133.67497 49 ft 145 kts 309°
2026-04-22 14:44 33.54780 133.66688 35 ft 95 kts 311°
2026-04-22 14:44 33.55014 133.66366 37 ft 11 kts 311°
2026-04-22 14:44 33.55057 133.66363 38 ft 6 kts 28°
2026-04-22 14:45 33.55084 133.66387 36 ft 4 kts 37°
2026-04-22 14:45 33.55103 133.66405 38 ft 3 kts 39°
2026-04-22 14:45 33.55117 133.66420 36 ft 2 kts 42°
2026-04-22 14:45 33.55125 133.66429 37 ft 1 kts 42°
2026-04-22 14:46 33.55129 133.66433 37 ft 1 kts 42°
2026-04-22 14:46 33.55143 133.66473 36 ft 10 kts 81°
2026-04-22 14:46 33.55103 133.66550 36 ft 15 kts 128°
2026-04-22 14:46 33.55012 133.66676 37 ft 22 kts 130°
2026-04-22 14:47 33.54913 133.66814 36 ft 22 kts 130°
2026-04-22 14:47 33.54816 133.66949 35 ft 21 kts 131°
2026-04-22 14:47 33.54736 133.67060 37 ft 13 kts 131°
2026-04-22 14:47 33.54679 133.67138 37 ft 12 kts 131°
2026-04-22 14:48 33.54634 133.67201 37 ft 9 kts 131°
2026-04-22 14:48 33.54598 133.67260 36 ft 8 kts 117°
2026-04-22 14:48 33.54596 133.67322 37 ft 7 kts 70°
2026-04-22 14:48 33.54625 133.67359 37 ft 6 kts 43°
2026-04-22 14:49 33.54651 133.67385 37 ft 3 kts 40°
2026-04-22 14:49 33.54663 133.67398 37 ft 2 kts 40°
2026-04-22 14:49 33.54668 133.67403 36 ft 0 kts 40°
2026-04-22 14:49 33.54671 133.67407 36 ft 2 kts 40°
2026-04-22 14:50 33.54672 133.67408 36 ft 0 kts 40°